WA6MLF Weather Reports


time (UTC)temp
F
wind
direction
speed
knots
gust
knots
rain 1hr
in
rain 24hr
in
rain mn
in
humidity
%
barometer
mb
20260506044555 64 355 0.0 2.6 0.00 0.00 0.00 38 1006.4
20260506043100 65 355 0.0 2.6 0.00 0.00 0.00 36 1006.3
20260506041553 66 355 0.0 1.7 0.00 0.00 0.00 34 1006.0
20260506034556 68 345 0.9 3.5 0.00 0.00 0.00 32 1005.4
20260506033051 69 355 0.9 5.2 0.00 0.00 0.00 31 1005.1
20260506031553 70 331 1.7 8.7 0.00 0.00 0.00 31 1004.7
20260506030055 71 328 0.9 4.3 0.00 0.00 0.00 30 1004.4
20260506024557 72 355 1.7 7.0 0.00 0.00 0.00 30 1004.1
20260506023050 73 360 1.7 10.4 0.00 0.00 0.00 28 1003.9
20260506021601 74 355 2.6 10.4 0.00 0.00 0.00 28 1003.6
20260506020048 75 360 2.6 11.3 0.00 0.00 0.00 27 1003.6
20260506014548 76 5 3.5 11.3 0.00 0.00 0.00 26 1003.5
20260506013055 76 344 4.3 12.2 0.00 0.00 0.00 27 1003.4
20260506011601 77 333 5.2 11.3 0.00 0.00 0.00 25 1003.3
20260506010046 78 338 3.5 9.6 0.00 0.00 0.00 26 1003.2
20260506004546 78 355 3.5 13.9 0.00 0.00 0.00 26 1003.2
20260506003045 78 14 6.1 13.0 0.00 0.00 0.00 25 1003.1
20260506001550 78 355 6.1 13.0 0.00 0.00 0.00 24 1003.3
20260506000046 78 355 5.2 12.2 0.00 0.00 0.00 25 1003.2
20260505234544 79 293 6.1 12.2 0.00 0.00 0.00 24 1003.3
20260505233043 79 313 5.2 14.8 0.00 0.00 0.00 25 1003.4
20260505231600 79 323 5.2 14.8 0.00 0.00 0.00 25 1003.4
20260505230042 79 282 3.5 15.6 0.00 0.00 0.00 26 1003.4
20260505224542 79 288 5.2 10.4 0.00 0.00 0.00 26 1003.6
20260505223041 80 303 4.3 16.5 0.00 0.00 0.00 25 1003.6
20260505221539 79 327 3.5 13.0 0.00 0.00 0.00 26 1003.8
20260505220038 78 290 3.5 8.7 0.00 0.00 0.00 28 1004.0
20260505214556 78 303 3.5 8.7 0.00 0.00 0.00 28 1004.3
20260505213028 77 15 2.6 10.4 0.00 0.00 0.00 32 1004.7
20260505211527 77 317 4.3 8.7 0.00 0.00 0.00 31 1004.7
20260505210026 77 300 4.3 10.4 0.00 0.00 0.00 31 1004.9
20260505204524 76 259 2.6 9.6 0.00 0.00 0.00 31 1004.9
20260505203022 76 309 2.6 7.8 0.00 0.00 0.00 35 1005.2
20260505201520 75 348 2.6 9.6 0.00 0.00 0.00 34 1005.3
20260505200018 74 288 1.7 5.2 0.00 0.00 0.00 33 1005.4
20260505194518 74 292 2.6 8.7 0.00 0.00 0.00 31 1005.6
20260505193016 74 212 0.9 4.3 0.00 0.00 0.00 34 1005.7
20260505191518 73 278 1.7 7.0 0.00 0.00 0.00 33 1005.8
20260505190022 72 360 0.0 5.2 0.00 0.00 0.00 33 1006.0
20260505184514 72 292 2.6 7.0 0.00 0.00 0.00 35 1006.1
20260505183011 72 271 1.7 8.7 0.00 0.00 0.00 36 1006.3
20260505181511 72 252 1.7 7.0 0.00 0.00 0.00 35 1006.4
20260505180014 72 146 1.7 4.3 0.00 0.00 0.00 36 1006.5
20260505174509 72 157 0.0 5.2 0.00 0.00 0.00 32 1006.6
20260505173006 71 126 0.0 5.2 0.00 0.00 0.00 34 1006.6
20260505171506 70 146 2.6 7.0 0.00 0.00 0.00 37 1006.5
20260505170001 70 209 1.7 5.2 0.00 0.00 0.00 36 1006.3
20260505164605 69 185 1.7 6.1 0.00 0.00 0.00 37 1006.3
20260505163054 68 142 1.7 7.0 0.00 0.00 0.00 42 1006.2
20260505161555 67 182 3.5 11.3 0.00 0.00 0.00 39 1006.2
20260505153044 66 186 4.3 9.6 0.00 0.00 0.00 44 1005.6
20260505151541 64 181 3.5 7.8 0.00 0.00 0.00 50 1005.7
20260505124532 49 126 0.0 1.7 0.00 0.00 0.00 75 1003.9
20260505123028 50 126 0.0 2.6 0.00 0.00 0.00 75 1003.7
20260505121522 49 126 0.0 2.6 0.00 0.00 0.00 73 1003.1
20260505120029 50 126 0.0 1.7 0.00 0.00 0.00 73 1002.9
20260505114511 51 126 0.0 1.7 0.00 0.00 0.00 70 1002.7
20260505113006 52 126 0.0 3.5 0.00 0.00 0.00 66 1002.6
20260505111509 54 286 0.0 1.7 0.00 0.00 0.00 63 1002.3
20260505101553 57 286 0.0 2.6 0.00 0.00 0.00 56 1001.6
20260505100047 57 286 0.9 2.6 0.00 0.00 0.00 54 1001.3
20260505094543 58 281 0.9 4.3 0.00 0.00 0.00 52 1001.4
20260505093044 58 273 0.9 6.1 0.00 0.00 0.00 52 1001.2
20260505091545 59 291 1.7 7.0 0.00 0.00 0.00 52 1000.9
20260505090039 59 281 3.5 6.1 0.00 0.00 0.00 51 1000.8
20260505084533 61 273 0.9 3.5 0.00 0.00 0.00 48 1000.8
20260505083029 61 292 0.9 4.3 0.00 0.00 0.00 46 1000.8
20260505081527 62 267 0.9 5.2 0.00 0.00 0.00 45 1000.7
20260505080024 62 297 2.6 6.1 0.00 0.00 0.00 44 1000.5
20260505074526 63 299 1.7 7.8 0.00 0.00 0.00 44 1000.5
20260505073023 63 298 2.6 9.6 0.00 0.00 0.00 44 1000.5
20260505071530 63 295 2.6 7.0 0.00 0.00 0.00 44 1000.4
20260505070018 63 305 1.7 4.3 0.00 0.00 0.00 43 1000.4
20260505064517 64 286 1.7 6.1 0.00 0.00 0.00 43 1000.4
20260505063017 64 296 1.7 7.0 0.00 0.00 0.00 42 1000.3
20260505061517 64 300 0.9 4.3 0.00 0.00 0.00 42 1000.2
20260505060112 65 311 1.7 4.3 0.00 0.00 0.00 41 1000.1
20260505054513 65 313 0.0 2.6 0.00 0.00 0.00 41 1000.0
20260505053010 65 313 0.9 3.5 0.00 0.00 0.00 41 999.9
20260505051517 66 302 0.9 4.3 0.00 0.00 0.00 41 999.9